• In Belgium
  • List of Countries
  • For 7 days
  • Water Temperature
  • Satellite Maps
  • Weather Map
  • Weather Widgets
  • user-avatar
    Login

    Hourly Weather Kerns

    Today, 21 August, Monday

    Time Temperature Precipitation Wind Pressure Humidity
    00:00 +17°C° 0 mm 4 mps 762 mmHg 93%
    01:00 +17°C° 0 mm 4 mps 762 mmHg 94%
    02:00 +17°C° 0 mm 4 mps 762 mmHg 94%
    03:00 +17°C° 0 mm 4 mps 761 mmHg 94%
    04:00 +17°C° 0 mm 4 mps 761 mmHg 93%
    05:00 +17°C° 0 mm 4 mps 762 mmHg 93%
    06:00 +17°C° 0 mm 4 mps 762 mmHg 93%
    07:00 +17°C° 0 mm 4 mps 762 mmHg 92%
    08:00 +19°C° 0 mm 4 mps 762 mmHg 81%
    09:00 +22°C° 0 mm 4 mps 762 mmHg 69%
    10:00 +25°C° 0 mm 5 mps 763 mmHg 57%
    11:00 +26°C° 0 mm 5 mps 762 mmHg 53%
    12:00 +27°C° 0 mm 5 mps 762 mmHg 49%
    13:00 +28°C° 0 mm 5 mps 761 mmHg 45%
    14:00 +28°C° 0 mm 5 mps 761 mmHg 46%
    15:00 +28°C° 0 mm 5 mps 761 mmHg 47%
    16:00 +27°C° 0 mm 5 mps 761 mmHg 49%
    17:00 +25°C° 0 mm 5 mps 761 mmHg 59%
    18:00 +21°C° 0 mm 4 mps 762 mmHg 70%
    19:00 +19°C° 0 mm 4 mps 762 mmHg 80%
    20:00 +18°C° 0 mm 4 mps 762 mmHg 84%
    21:00 +18°C° 0 mm 4 mps 763 mmHg 88%
    22:00 +17°C° 0 mm 3 mps 763 mmHg 92%
    23:00 +17°C° 0 mm 3 mps 763 mmHg 93%

    Tomorrow, 22 August, Tuesday

    Time Temperature Precipitation Wind Pressure Humidity
    00:00 +17°C° 0 mm 3 mps 763 mmHg 94%
    01:00 +17°C° 0 mm 3 mps 762 mmHg 95%
    02:00 +17°C° 0 mm 3 mps 762 mmHg 95%
    03:00 +17°C° 0 mm 3 mps 762 mmHg 96%
    04:00 +17°C° 0 mm 3 mps 762 mmHg 96%
    05:00 +17°C° 0 mm 3 mps 762 mmHg 96%
    06:00 +17°C° 0 mm 3 mps 762 mmHg 96%
    07:00 +17°C° 0 mm 3 mps 763 mmHg 96%
    08:00 +20°C° 0 mm 3 mps 763 mmHg 85%
    09:00 +24°C° 0 mm 3 mps 763 mmHg 73%
    10:00 +27°C° 0 mm 3 mps 763 mmHg 62%
    11:00 +28°C° 0 mm 4 mps 762 mmHg 57%
    12:00 +29°C° 0 mm 4 mps 762 mmHg 53%
    13:00 +30°C° 0 mm 4 mps 761 mmHg 49%
    14:00 +30°C° 0 mm 4 mps 761 mmHg 51%
    15:00 +30°C° 0 mm 4 mps 761 mmHg 53%
    16:00 +29°C° 0 mm 4 mps 760 mmHg 55%
    17:00 +27°C° 0 mm 4 mps 761 mmHg 67%
    18:00 +24°C° 0 mm 3 mps 761 mmHg 78%
    19:00 +21°C° 0 mm 3 mps 762 mmHg 90%
    20:00 +20°C° 0 mm 3 mps 762 mmHg 91%
    21:00 +20°C° 0 mm 3 mps 763 mmHg 93%
    22:00 +19°C° 0 mm 3 mps 763 mmHg 95%
    23:00 +19°C° 0 mm 3 mps 763 mmHg 95%

    Day after tomorrow, 23 August, Wednesday

    Time Temperature Precipitation Wind Pressure Humidity
    00:00 +19°C° 0 mm 3 mps 763 mmHg 95%
    01:00 +19°C° 0 mm 3 mps 763 mmHg 95%
    02:00 +20°C° 0.1 mm 3 mps 762 mmHg 95%
    03:00 +20°C° 0.1 mm 3 mps 762 mmHg 96%
    04:00 +21°C° 0.1 mm 3 mps 762 mmHg 96%
    05:00 +21°C° 0 mm 3 mps 762 mmHg 96%
    06:00 +21°C° 0 mm 3 mps 763 mmHg 95%
    07:00 +21°C° 0 mm 3 mps 763 mmHg 95%
    08:00 +23°C° 0 mm 4 mps 763 mmHg 85%
    09:00 +25°C° 0 mm 4 mps 763 mmHg 75%
    10:00 +27°C° 0 mm 4 mps 763 mmHg 65%
    11:00 +28°C° 0 mm 4 mps 763 mmHg 60%
    12:00 +29°C° 0 mm 4 mps 762 mmHg 55%
    13:00 +30°C° 0 mm 5 mps 761 mmHg 49%
    14:00 +30°C° 0 mm 5 mps 761 mmHg 50%
    15:00 +30°C° 0 mm 4 mps 761 mmHg 51%
    16:00 +29°C° 0 mm 4 mps 760 mmHg 52%
    17:00 +27°C° 0 mm 4 mps 761 mmHg 63%
    18:00 +25°C° 0 mm 4 mps 761 mmHg 74%
    19:00 +21°C° 0 mm 4 mps 762 mmHg 85%
    20:00 +21°C° 0 mm 4 mps 762 mmHg 88%
    21:00 +20°C° 0 mm 4 mps 762 mmHg 91%
    22:00 +19°C° 0 mm 4 mps 763 mmHg 94%
    23:00 +19°C° 0 mm 4 mps 762 mmHg 95%

    24 August, Thursday

    Time Temperature Precipitation Wind Pressure Humidity
    00:00 +19°C° 0 mm 3 mps 762 mmHg 95%
    01:00 +19°C° 0 mm 3 mps 762 mmHg 96%
    02:00 +19°C° 0 mm 3 mps 761 mmHg 96%
    03:00 +19°C° 0 mm 3 mps 761 mmHg 97%
    04:00 +19°C° 0 mm 3 mps 761 mmHg 97%
    05:00 +19°C° 0 mm 3 mps 761 mmHg 97%
    06:00 +19°C° 0 mm 3 mps 761 mmHg 97%
    07:00 +19°C° 0 mm 3 mps 762 mmHg 97%
    08:00 +22°C° 0 mm 3 mps 762 mmHg 85%
    09:00 +25°C° 0 mm 4 mps 762 mmHg 72%
    10:00 +27°C° 0 mm 4 mps 762 mmHg 60%
    11:00 +29°C° 0 mm 4 mps 762 mmHg 55%
    12:00 +30°C° 0 mm 4 mps 761 mmHg 50%
    13:00 +32°C° 0 mm 4 mps 760 mmHg 45%
    14:00 +32°C° 0 mm 4 mps 760 mmHg 46%
    15:00 +30°C° 0 mm 4 mps 759 mmHg 47%
    16:00 +30°C° 0 mm 4 mps 759 mmHg 49%
    17:00 +27°C° 0 mm 4 mps 759 mmHg 60%
    18:00 +25°C° 0 mm 4 mps 760 mmHg 72%
    19:00 +21°C° 0 mm 3 mps 760 mmHg 83%
    20:00 +21°C° 0 mm 3 mps 761 mmHg 86%
    21:00 +20°C° 0 mm 3 mps 761 mmHg 89%
    22:00 +19°C° 0 mm 3 mps 761 mmHg 92%
    23:00 +19°C° 0 mm 3 mps 761 mmHg 90%

    25 August, Friday

    Time Temperature Precipitation Wind Pressure Humidity
    00:00 +19°C° 0 mm 3 mps 761 mmHg 89%
    01:00 +19°C° 0 mm 2 mps 760 mmHg 88%
    02:00 +18°C° 0 mm 2 mps 760 mmHg 88%
    03:00 +18°C° 0 mm 2 mps 760 mmHg 88%
    04:00 +18°C° 0 mm 2 mps 760 mmHg 88%
    05:00 +18°C° 0 mm 2 mps 760 mmHg 88%
    06:00 +18°C° 0 mm 3 mps 761 mmHg 88%
    07:00 +18°C° 0 mm 3 mps 761 mmHg 88%
    08:00 +21°C° 0 mm 3 mps 761 mmHg 77%
    09:00 +25°C° 0 mm 4 mps 761 mmHg 67%
    10:00 +28°C° 0 mm 4 mps 762 mmHg 56%
    11:00 +29°C° 0 mm 4 mps 761 mmHg 54%
    12:00 +30°C° 0 mm 5 mps 760 mmHg 51%
    13:00 +32°C° 0 mm 5 mps 760 mmHg 49%
    14:00 +32°C° 0 mm 5 mps 760 mmHg 51%
    15:00 +30°C° 0 mm 5 mps 759 mmHg 54%
    16:00 +30°C° 0 mm 5 mps 759 mmHg 56%
    17:00 +28°C° 0 mm 5 mps 760 mmHg 66%
    18:00 +25°C° 0 mm 5 mps 760 mmHg 76%
    19:00 +22°C° 0 mm 5 mps 761 mmHg 86%
    20:00 +22°C° 0 mm 5 mps 761 mmHg 89%
    21:00 +22°C° 0 mm 5 mps 761 mmHg 92%
    22:00 +21°C° 0 mm 5 mps 762 mmHg 95%
    23:00 +21°C° 0.1 mm 5 mps 761 mmHg 95%

    26 August, Saturday

    Time Temperature Precipitation Wind Pressure Humidity
    00:00 +21°C° 0.1 mm 5 mps 761 mmHg 95%
    01:00 +21°C° 0.1 mm 4 mps 761 mmHg 94%
    02:00 +21°C° 0.1 mm 4 mps 761 mmHg 95%
    03:00 +21°C° 0.1 mm 4 mps 761 mmHg 95%
    04:00 +21°C° 0.1 mm 4 mps 760 mmHg 96%
    05:00 +21°C° 0.2 mm 4 mps 761 mmHg 95%
    06:00 +21°C° 0.2 mm 5 mps 761 mmHg 95%
    07:00 +21°C° 0.2 mm 5 mps 762 mmHg 95%
    08:00 +22°C° 0.2 mm 5 mps 762 mmHg 90%
    09:00 +23°C° 0.2 mm 6 mps 762 mmHg 85%
    10:00 +24°C° 0.2 mm 6 mps 762 mmHg 80%
    11:00 +26°C° 0.2 mm 6 mps 762 mmHg 77%
    12:00 +26°C° 0.2 mm 6 mps 761 mmHg 75%
    13:00 +26°C° 0.2 mm 6 mps 761 mmHg 72%
    14:00 +26°C° 0.2 mm 6 mps 761 mmHg 73%
    15:00 +26°C° 0.2 mm 6 mps 761 mmHg 75%
    16:00 +24°C° 0.2 mm 6 mps 760 mmHg 76%
    17:00 +23°C° 0.2 mm 6 mps 761 mmHg 81%
    18:00 +22°C° 0.2 mm 6 mps 761 mmHg 86%
    19:00 +21°C° 0.2 mm 5 mps 762 mmHg 92%
    20:00 +21°C° 0.1 mm 5 mps 762 mmHg 93%
    21:00 +21°C° 0.1 mm 6 mps 763 mmHg 94%
    22:00 +20°C° 0.1 mm 6 mps 763 mmHg 95%
    23:00 +20°C° 0.1 mm 5 mps 762 mmHg 95%
    Show more